Location: Paddlesworth
(51.1000°N, 1.1333°E)
Time: 06:38:01
(UTC+00:00)

Okean 1 - Pass Details

Date: 29 September 2021
Orbit: 539 x 552 km, 82.5° (Epoch: 23 October)

Event Time Altitude Azimuth Distance (km) Brightness Sun altitude
Rises 02:57:50 0° 133° (SE) 2,689 7.0 -27.0°
Reaches altitude 10° 03:01:32 10° 97° (E) 1,807 6.6 -26.5°
Maximum altitude 03:02:36 11° 81° (E) 1,751 6.7 -26.3°
Drops below altitude 10° 03:03:39 10° 66° (ENE) 1,813 7.0 -26.2°
Sets 03:07:23 0° 30° (NNE) 2,716 7.8 -25.7°
